| time (UTC) | temp F | wind direction | speed MPH | gust MPH | rain 1hr in | rain 24hr in | rain mn in | humidity % | barometer mb |
| 20260906103226 | 76 | 175 | 1.0 | 1.0 | 0.00 | 0.00 | 0.00 | 96 | 1012.9 |
| 20260906102726 | 76 | 143 | 1.0 | 1.0 | 0.00 | 0.00 | 0.00 | 96 | 1012.9 |
| 20260906102226 | 76 | 182 | 1.0 | 1.0 | 0.00 | 0.00 | 0.00 | 96 | 1012.8 |
| 20260906101726 | 76 | 162 | 1.0 | 2.0 | 0.00 | 0.00 | 0.00 | 96 | 1012.9 |
| 20260906101226 | 76 | 205 | 1.0 | 2.0 | 0.00 | 0.00 | 0.00 | 96 | 1012.9 |
| 20260906100726 | 76 | 160 | 1.0 | 2.0 | 0.00 | 0.00 | 0.00 | 96 | 1012.9 |
| 20260906100226 | 76 | 180 | 1.0 | 2.0 | 0.00 | 0.00 | 0.00 | 96 | 1012.9 |
| 20260906095726 | 76 | 204 | 1.0 | 2.0 | 0.00 | 0.00 | 0.00 | 96 | 1012.8 |
| 20260906095227 | 76 | 184 | 0.0 | 1.0 | 0.00 | 0.00 | 0.00 | 96 | 1012.7 |
| 20260906094726 | 76 | 206 | 1.0 | 2.0 | 0.00 | 0.00 | 0.00 | 97 | 1012.7 |
| 20260906094226 | 75 | 199 | 1.0 | 2.0 | 0.00 | 0.00 | 0.00 | 96 | 1012.6 |
| 20260906093726 | 75 | 198 | 1.0 | 2.0 | 0.00 | 0.00 | 0.00 | 96 | 1012.6 |
| 20260906093226 | 75 | 147 | 1.0 | 2.0 | 0.00 | 0.00 | 0.00 | 96 | 1012.6 |
| 20260906092726 | 75 | 140 | 2.0 | 2.0 | 0.00 | 0.00 | 0.00 | 96 | 1012.6 |
| 20260906092226 | 75 | 142 | 1.0 | 2.0 | 0.00 | 0.00 | 0.00 | 96 | 1012.6 |
| 20260906091726 | 75 | 150 | 1.0 | 2.0 | 0.00 | 0.00 | 0.00 | 96 | 1012.5 |
| 20260906091226 | 75 | 161 | 1.0 | 2.0 | 0.00 | 0.00 | 0.00 | 96 | 1012.5 |
| 20260906090726 | 75 | 158 | 1.0 | 2.0 | 0.00 | 0.00 | 0.00 | 96 | 1012.5 |
| 20260906090226 | 75 | 178 | 1.0 | 1.0 | 0.00 | 0.00 | 0.00 | 96 | 1012.5 |
| 20260906085726 | 76 | 179 | 1.0 | 1.0 | 0.00 | 0.00 | 0.00 | 96 | 1012.5 |
| 20260906085226 | 76 | 146 | 1.0 | 2.0 | 0.00 | 0.00 | 0.00 | 96 | 1012.5 |
| 20260906084726 | 76 | 182 | 1.0 | 1.0 | 0.00 | 0.00 | 0.00 | 96 | 1012.4 |
| 20260906084226 | 76 | 166 | 1.0 | 2.0 | 0.00 | 0.00 | 0.00 | 96 | 1012.4 |
| 20260906083727 | 76 | 192 | 1.0 | 2.0 | 0.00 | 0.00 | 0.00 | 96 | 1012.3 |
| 20260906083227 | 76 | 194 | 1.0 | 2.0 | 0.00 | 0.00 | 0.00 | 96 | 1012.2 |
| 20260906082726 | 76 | 165 | 1.0 | 2.0 | 0.00 | 0.00 | 0.00 | 96 | 1012.0 |
| 20260906082226 | 76 | 146 | 1.0 | 2.0 | 0.00 | 0.00 | 0.00 | 96 | 1012.0 |
| 20260906081726 | 76 | 145 | 1.0 | 1.0 | 0.00 | 0.00 | 0.00 | 96 | 1011.8 |
| 20260906081226 | 76 | 170 | 1.0 | 1.0 | 0.00 | 0.00 | 0.00 | 96 | 1011.8 |
| 20260906080729 | 76 | 174 | 1.0 | 1.0 | 0.00 | 0.00 | 0.00 | 96 | 1011.8 |
| 20260906080226 | 76 | 150 | 1.0 | 2.0 | 0.00 | 0.00 | 0.00 | 96 | 1011.8 |
| 20260906075728 | 76 | 213 | 2.0 | 2.0 | 0.00 | 0.00 | 0.00 | 96 | 1011.8 |
| 20260906075226 | 76 | 156 | 1.0 | 2.0 | 0.00 | 0.00 | 0.00 | 96 | 1011.9 |
| 20260906074728 | 76 | 149 | 1.0 | 2.0 | 0.00 | 0.00 | 0.00 | 96 | 1011.9 |
| 20260906074227 | 76 | 176 | 0.0 | 0.0 | 0.00 | 0.00 | 0.00 | 96 | 1011.8 |
| 20260906073726 | 76 | 174 | 0.0 | 1.0 | 0.00 | 0.00 | 0.00 | 96 | 1011.8 |
| 20260906073227 | 76 | 174 | 1.0 | 1.0 | 0.00 | 0.00 | 0.00 | 96 | 1011.7 |
| 20260906072726 | 76 | 162 | 1.0 | 2.0 | 0.00 | 0.00 | 0.00 | 96 | 1011.7 |
| 20260906072228 | 76 | 170 | 1.0 | 1.0 | 0.00 | 0.00 | 0.00 | 96 | 1011.7 |
| 20260906071726 | 76 | 153 | 1.0 | 2.0 | 0.00 | 0.00 | 0.00 | 96 | 1011.7 |
| 20260906071227 | 76 | 195 | 1.0 | 2.0 | 0.00 | 0.00 | 0.00 | 96 | 1011.6 |
| 20260906070726 | 76 | 182 | 1.0 | 1.0 | 0.00 | 0.00 | 0.00 | 96 | 1011.5 |
| 20260906070226 | 76 | 155 | 1.0 | 1.0 | 0.00 | 0.00 | 0.00 | 96 | 1011.6 |
| 20260906065729 | 76 | 172 | 1.0 | 1.0 | 0.00 | 0.00 | 0.00 | 96 | 1011.7 |
| 20260906065227 | 76 | 160 | 1.0 | 2.0 | 0.00 | 0.00 | 0.00 | 96 | 1011.8 |
| 20260906064726 | 76 | 149 | 1.0 | 2.0 | 0.00 | 0.00 | 0.00 | 96 | 1011.8 |
| 20260906064226 | 76 | 156 | 1.0 | 2.0 | 0.00 | 0.00 | 0.00 | 96 | 1011.8 |
| 20260906063726 | 76 | 167 | 1.0 | 1.0 | 0.00 | 0.00 | 0.00 | 96 | 1011.9 |
| 20260906063226 | 76 | 134 | 2.0 | 2.0 | 0.00 | 0.00 | 0.00 | 96 | 1011.9 |
| 20260906062726 | 77 | 153 | 1.0 | 2.0 | 0.00 | 0.00 | 0.00 | 96 | 1011.9 |
| 20260906062226 | 77 | 178 | 1.0 | 1.0 | 0.00 | 0.00 | 0.00 | 96 | 1011.9 |
| 20260906061726 | 77 | 165 | 1.0 | 1.0 | 0.00 | 0.00 | 0.00 | 95 | 1012.0 |
| 20260906061227 | 77 | 157 | 1.0 | 2.0 | 0.00 | 0.00 | 0.00 | 95 | 1011.9 |
| 20260906060726 | 77 | 166 | 1.0 | 2.0 | 0.00 | 0.00 | 0.00 | 95 | 1012.0 |
| 20260906060226 | 77 | 131 | 2.0 | 2.0 | 0.00 | 0.00 | 0.00 | 95 | 1012.1 |
| 20260906055726 | 77 | 156 | 1.0 | 1.0 | 0.00 | 0.00 | 0.00 | 95 | 1012.1 |
| 20260906055226 | 77 | 196 | 1.0 | 2.0 | 0.00 | 0.00 | 0.00 | 95 | 1012.1 |
| 20260906054726 | 77 | 153 | 1.0 | 2.0 | 0.00 | 0.00 | 0.00 | 95 | 1012.1 |
| 20260906054226 | 77 | 150 | 1.0 | 2.0 | 0.00 | 0.00 | 0.00 | 95 | 1012.2 |
| 20260906053726 | 77 | 141 | 1.0 | 2.0 | 0.00 | 0.00 | 0.00 | 95 | 1012.1 |
| 20260906053226 | 77 | 155 | 1.0 | 1.0 | 0.00 | 0.00 | 0.00 | 95 | 1012.0 |
| 20260906052726 | 77 | 143 | 1.0 | 1.0 | 0.00 | 0.00 | 0.00 | 95 | 1012.1 |
| 20260906052226 | 77 | 152 | 1.0 | 2.0 | 0.00 | 0.00 | 0.00 | 95 | 1012.1 |
| 20260906051726 | 77 | 146 | 2.0 | 2.0 | 0.00 | 0.00 | 0.00 | 95 | 1012.2 |
| 20260906051226 | 77 | 189 | 1.0 | 2.0 | 0.00 | 0.00 | 0.00 | 95 | 1012.2 |
| 20260906050727 | 78 | 199 | 1.0 | 2.0 | 0.00 | 0.00 | 0.00 | 95 | 1012.3 |
| 20260906050226 | 78 | 119 | 2.0 | 2.0 | 0.00 | 0.00 | 0.00 | 94 | 1012.2 |
| 20260906045726 | 78 | 202 | 1.0 | 2.0 | 0.00 | 0.00 | 0.03 | 94 | 1012.3 |
| 20260906045226 | 78 | 142 | 1.0 | 2.0 | 0.00 | 0.00 | 0.03 | 94 | 1012.3 |
| 20260906044726 | 78 | 138 | 2.0 | 2.0 | 0.00 | 0.00 | 0.03 | 94 | 1012.4 |
| 20260906044226 | 78 | 140 | 2.0 | 2.0 | 0.00 | 0.00 | 0.03 | 94 | 1012.4 |
| 20260906043726 | 78 | 119 | 1.0 | 2.0 | 0.00 | 0.00 | 0.03 | 95 | 1012.4 |
| 20260906043227 | 78 | 158 | 1.0 | 1.0 | 0.00 | 0.00 | 0.03 | 95 | 1012.4 |
| 20260906042726 | 78 | 130 | 1.0 | 2.0 | 0.00 | 0.00 | 0.03 | 95 | 1012.5 |
| 20260906042226 | 78 | 142 | 1.0 | 2.0 | 0.00 | 0.00 | 0.03 | 95 | 1012.4 |
| 20260906041726 | 78 | 169 | 1.0 | 1.0 | 0.00 | 0.00 | 0.03 | 95 | 1012.4 |
| 20260906041226 | 78 | 139 | 2.0 | 2.0 | 0.00 | 0.00 | 0.03 | 94 | 1012.4 |
| 20260906040727 | 78 | 149 | 2.0 | 2.0 | 0.00 | 0.00 | 0.03 | 94 | 1012.4 |
| 20260906040226 | 78 | 152 | 1.0 | 2.0 | 0.00 | 0.00 | 0.03 | 94 | 1012.4 |
| 20260906035726 | 78 | 161 | 1.0 | 2.0 | 0.00 | 0.00 | 0.03 | 94 | 1012.4 |
| 20260906035229 | 78 | 147 | 1.0 | 2.0 | 0.00 | 0.00 | 0.03 | 94 | 1012.5 |
| 20260906034726 | 78 | 145 | 1.0 | 2.0 | 0.00 | 0.00 | 0.03 | 94 | 1012.6 |
| 20260906034226 | 78 | 149 | 2.0 | 2.0 | 0.00 | 0.00 | 0.03 | 94 | 1012.5 |
| 20260906033726 | 78 | 140 | 1.0 | 2.0 | 0.00 | 0.00 | 0.03 | 94 | 1012.6 |
| 20260906033226 | 78 | 154 | 1.0 | 2.0 | 0.00 | 0.00 | 0.03 | 94 | 1012.7 |
| 20260906032726 | 78 | 134 | 2.0 | 2.0 | 0.00 | 0.00 | 0.03 | 94 | 1012.7 |
| 20260906032227 | 78 | 147 | 1.0 | 1.0 | 0.00 | 0.00 | 0.03 | 94 | 1012.7 |
| 20260906031726 | 78 | 134 | 2.0 | 2.0 | 0.00 | 0.00 | 0.03 | 94 | 1012.8 |
| 20260906031226 | 78 | 148 | 1.0 | 2.0 | 0.00 | 0.00 | 0.03 | 94 | 1012.8 |
| 20260906030726 | 78 | 134 | 2.0 | 2.0 | 0.00 | 0.00 | 0.03 | 94 | 1012.7 |
| 20260906030226 | 78 | 144 | 1.0 | 2.0 | 0.00 | 0.00 | 0.03 | 93 | 1012.7 |
| 20260906025726 | 78 | 148 | 1.0 | 1.0 | 0.00 | 0.00 | 0.03 | 93 | 1012.8 |
| 20260906025226 | 78 | 166 | 1.0 | 1.0 | 0.00 | 0.00 | 0.03 | 93 | 1012.8 |
| 20260906024726 | 78 | 143 | 2.0 | 2.0 | 0.00 | 0.00 | 0.03 | 93 | 1012.8 |
| 20260906024226 | 78 | 145 | 1.0 | 2.0 | 0.00 | 0.00 | 0.03 | 93 | 1012.8 |
| 20260906023727 | 78 | 136 | 2.0 | 2.0 | 0.00 | 0.00 | 0.03 | 93 | 1012.8 |
| 20260906023226 | 78 | 151 | 1.0 | 2.0 | 0.00 | 0.00 | 0.03 | 93 | 1012.8 |
| 20260906022726 | 78 | 138 | 1.0 | 1.0 | 0.00 | 0.00 | 0.03 | 93 | 1012.8 |
| 20260906022226 | 78 | 151 | 1.0 | 1.0 | 0.00 | 0.00 | 0.03 | 93 | 1012.7 |
| 20260906021727 | 79 | 140 | 1.0 | 2.0 | 0.00 | 0.00 | 0.03 | 92 | 1012.7 |
| 20260906021226 | 79 | 161 | 1.0 | 2.0 | 0.00 | 0.00 | 0.03 | 92 | 1012.7 |
| 20260906020726 | 79 | 136 | 1.0 | 2.0 | 0.00 | 0.00 | 0.03 | 92 | 1012.7 |
| 20260906020226 | 79 | 164 | 1.0 | 1.0 | 0.00 | 0.00 | 0.03 | 92 | 1012.7 |
| 20260906015727 | 79 | 143 | 1.0 | 2.0 | 0.00 | 0.00 | 0.03 | 91 | 1012.7 |
| 20260906015227 | 79 | 138 | 1.0 | 2.0 | 0.00 | 0.00 | 0.03 | 92 | 1012.6 |
| 20260906014726 | 79 | 142 | 1.0 | 2.0 | 0.00 | 0.00 | 0.03 | 92 | 1012.5 |
| 20260906014226 | 79 | 185 | 1.0 | 2.0 | 0.00 | 0.00 | 0.03 | 92 | 1012.5 |
| 20260906013726 | 79 | 147 | 1.0 | 2.0 | 0.00 | 0.00 | 0.03 | 92 | 1012.5 |
| 20260906013226 | 79 | 169 | 1.0 | 1.0 | 0.00 | 0.00 | 0.03 | 92 | 1012.5 |
| 20260906012726 | 79 | 164 | 1.0 | 1.0 | 0.00 | 0.00 | 0.03 | 92 | 1012.5 |
| 20260906012226 | 79 | 156 | 1.0 | 2.0 | 0.00 | 0.00 | 0.03 | 92 | 1012.4 |
| 20260906011726 | 79 | 152 | 1.0 | 2.0 | 0.00 | 0.00 | 0.03 | 92 | 1012.3 |
| 20260906011226 | 79 | 147 | 1.0 | 1.0 | 0.00 | 0.00 | 0.03 | 91 | 1012.2 |
| 20260906010726 | 79 | 146 | 1.0 | 2.0 | 0.00 | 0.00 | 0.03 | 91 | 1012.2 |
| 20260906010226 | 80 | 155 | 1.0 | 2.0 | 0.00 | 0.00 | 0.03 | 91 | 1012.2 |
| 20260906005726 | 80 | 203 | 1.0 | 2.0 | 0.00 | 0.00 | 0.03 | 92 | 1012.1 |
| 20260906005226 | 80 | 162 | 2.0 | 2.0 | 0.00 | 0.00 | 0.03 | 92 | 1012.2 |
| 20260906004726 | 80 | 173 | 1.0 | 2.0 | 0.00 | 0.00 | 0.03 | 92 | 1012.1 |
| 20260906004226 | 80 | 151 | 1.0 | 2.0 | 0.00 | 0.00 | 0.03 | 91 | 1012.1 |
| 20260906003726 | 80 | 143 | 1.0 | 2.0 | 0.00 | 0.00 | 0.03 | 91 | 1012.0 |
| 20260906003226 | 81 | 178 | 1.0 | 2.0 | 0.00 | 0.00 | 0.03 | 90 | 1012.1 |
| 20260906002726 | 81 | 180 | 1.0 | 2.0 | 0.00 | 0.00 | 0.03 | 90 | 1012.1 |
| 20260906002227 | 81 | 151 | 1.0 | 2.0 | 0.00 | 0.00 | 0.03 | 89 | 1012.1 |
| 20260906001726 | 81 | 161 | 1.0 | 2.0 | 0.00 | 0.00 | 0.03 | 89 | 1012.0 |
| 20260906001226 | 81 | 170 | 1.0 | 1.0 | 0.00 | 0.00 | 0.03 | 88 | 1012.1 |
| 20260906000726 | 81 | 186 | 1.0 | 2.0 | 0.00 | 0.00 | 0.03 | 88 | 1012.1 |
| 20260906000226 | 81 | 175 | 1.0 | 2.0 | 0.00 | 0.00 | 0.03 | 89 | 1012.0 |
| 20260905235727 | 81 | 173 | 1.0 | 1.0 | 0.00 | 0.00 | 0.03 | 90 | 1012.1 |
| 20260905235227 | 81 | 174 | 1.0 | 2.0 | 0.00 | 0.00 | 0.03 | 90 | 1012.1 |
| 20260905234727 | 81 | 169 | 1.0 | 2.0 | 0.00 | 0.00 | 0.03 | 90 | 1012.0 |
| 20260905234228 | 81 | 159 | 1.0 | 2.0 | 0.00 | 0.00 | 0.03 | 90 | 1012.1 |
| 20260905233726 | 81 | 163 | 1.0 | 2.0 | 0.00 | 0.00 | 0.03 | 90 | 1012.2 |
| 20260905233226 | 81 | 178 | 1.0 | 1.0 | 0.00 | 0.00 | 0.03 | 89 | 1012.2 |
| 20260905232726 | 82 | 194 | 1.0 | 2.0 | 0.00 | 0.00 | 0.03 | 88 | 1012.1 |
| 20260905232226 | 82 | 177 | 1.0 | 2.0 | 0.00 | 0.00 | 0.03 | 88 | 1012.1 |
| 20260905231726 | 82 | 188 | 1.0 | 2.0 | 0.00 | 0.00 | 0.03 | 87 | 1012.0 |
| 20260905231226 | 82 | 146 | 5.0 | 6.0 | 0.00 | 0.00 | 0.03 | 86 | 1011.9 |
| 20260905230726 | 82 | 153 | 5.0 | 5.0 | 0.00 | 0.00 | 0.03 | 86 | 1011.8 |
| 20260905230227 | 81 | 145 | 5.0 | 6.0 | 0.00 | 0.00 | 0.03 | 84 | 1011.8 |
| 20260905225727 | 81 | 141 | 5.0 | 6.0 | 0.00 | 0.00 | 0.03 | 87 | 1011.7 |
| 20260905225227 | 81 | 144 | 5.0 | 6.0 | 0.00 | 0.00 | 0.03 | 86 | 1011.7 |
| 20260905224726 | 81 | 143 | 5.0 | 6.0 | 0.00 | 0.00 | 0.03 | 86 | 1011.9 |
| 20260905224226 | 81 | 147 | 5.0 | 6.0 | 0.00 | 0.00 | 0.03 | 88 | 1011.9 |
| 20260905223734 | 81 | 139 | 5.0 | 6.0 | 0.00 | 0.00 | 0.03 | 89 | 1011.9 |
| 20260905223226 | 81 | 137 | 4.0 | 6.0 | 0.00 | 0.00 | 0.03 | 90 | 1012.0 |
| 20260905222727 | 80 | 140 | 4.0 | 5.0 | 0.00 | 0.00 | 0.03 | 90 | 1012.1 |
| 20260905222226 | 80 | 134 | 2.0 | 4.0 | 0.00 | 0.00 | 0.03 | 90 | 1012.1 |
| 20260905221726 | 80 | 127 | 3.0 | 4.0 | 0.00 | 0.00 | 0.03 | 90 | 1012.0 |
| 20260905221227 | 80 | 132 | 3.0 | 4.0 | 0.00 | 0.00 | 0.03 | 90 | 1012.0 |
| 20260905220726 | 80 | 128 | 2.0 | 4.0 | 0.00 | 0.00 | 0.03 | 89 | 1012.0 |
| 20260905220227 | 80 | 128 | 3.0 | 4.0 | 0.00 | 0.00 | 0.03 | 89 | 1012.0 |
| 20260905215726 | 79 | 137 | 4.0 | 5.0 | 0.00 | 0.00 | 0.03 | 90 | 1012.1 |
| 20260905215226 | 79 | 126 | 3.0 | 4.0 | 0.00 | 0.00 | 0.03 | 89 | 1012.3 |
| 20260905214726 | 79 | 127 | 3.0 | 5.0 | 0.00 | 0.00 | 0.03 | 89 | 1012.4 |
| 20260905214226 | 80 | 134 | 3.0 | 5.0 | 0.00 | 0.00 | 0.03 | 88 | 1012.5 |
| 20260905213726 | 80 | 147 | 6.0 | 6.0 | 0.00 | 0.00 | 0.03 | 87 | 1012.5 |
| 20260905213226 | 81 | 132 | 3.0 | 7.0 | 0.03 | 0.00 | 0.03 | 84 | 1012.8 |
| 20260905212726 | 82 | 132 | 2.0 | 4.0 | 0.01 | 0.00 | 0.03 | 86 | 1013.0 |
| 20260905212226 | 83 | 126 | 2.0 | 4.0 | 0.32 | 0.00 | 0.02 | 81 | 1012.9 |
| 20260905211726 | 84 | 119 | 2.0 | 4.0 | 0.01 | 0.00 | 0.00 | 76 | 1012.9 |
| 20260905211226 | 86 | 143 | 3.0 | 6.0 | 0.00 | 0.00 | 0.00 | 74 | 1012.6 |
| 20260905210727 | 87 | 134 | 2.0 | 4.0 | 0.00 | 0.00 | 0.00 | 74 | 1012.4 |
| 20260905210227 | 89 | 139 | 3.0 | 8.0 | 0.00 | 0.00 | 0.00 | 70 | 1012.3 |
| 20260905205728 | 90 | 135 | 3.0 | 6.0 | 0.00 | 0.00 | 0.00 | 64 | 1012.3 |
| 20260905205226 | 91 | 170 | 2.0 | 3.0 | 0.00 | 0.00 | 0.00 | 64 | 1012.1 |
| 20260905204726 | 91 | 152 | 2.0 | 3.0 | 0.00 | 0.00 | 0.00 | 64 | 1011.9 |
| 20260905204227 | 92 | 168 | 3.0 | 4.0 | 0.00 | 0.00 | 0.00 | 61 | 1011.8 |
| 20260905203726 | 92 | 148 | 2.0 | 4.0 | 0.00 | 0.00 | 0.00 | 58 | 1011.8 |
| 20260905203228 | 93 | 153 | 2.0 | 4.0 | 0.00 | 0.00 | 0.00 | 58 | 1012.0 |
| 20260905202726 | 94 | 164 | 2.0 | 3.0 | 0.00 | 0.00 | 0.00 | 57 | 1012.0 |
| 20260905202226 | 94 | 172 | 3.0 | 4.0 | 0.00 | 0.00 | 0.00 | 57 | 1012.1 |
| 20260905201726 | 94 | 151 | 2.0 | 4.0 | 0.00 | 0.00 | 0.00 | 56 | 1012.1 |
| 20260905201226 | 95 | 170 | 2.0 | 3.0 | 0.00 | 0.00 | 0.00 | 55 | 1012.3 |
| 20260905200726 | 94 | 152 | 1.0 | 2.0 | 0.00 | 0.00 | 0.00 | 57 | 1012.3 |
| 20260905200226 | 94 | 172 | 2.0 | 3.0 | 0.00 | 0.00 | 0.00 | 56 | 1012.2 |
| 20260905195726 | 95 | 164 | 1.0 | 2.0 | 0.00 | 0.00 | 0.00 | 57 | 1012.3 |
| 20260905195226 | 95 | 138 | 2.0 | 3.0 | 0.00 | 0.00 | 0.00 | 54 | 1012.4 |
| 20260905194726 | 95 | 177 | 2.0 | 4.0 | 0.00 | 0.00 | 0.00 | 56 | 1012.5 |
| 20260905194226 | 94 | 125 | 1.0 | 2.0 | 0.00 | 0.00 | 0.00 | 57 | 1012.4 |
| 20260905193726 | 94 | 144 | 1.0 | 3.0 | 0.00 | 0.00 | 0.00 | 57 | 1012.4 |
| 20260905193226 | 95 | 169 | 2.0 | 3.0 | 0.00 | 0.00 | 0.00 | 57 | 1012.5 |
| 20260905192726 | 95 | 113 | 1.0 | 3.0 | 0.00 | 0.00 | 0.00 | 56 | 1012.5 |
| 20260905192226 | 95 | 8 | 1.0 | 3.0 | 0.00 | 0.00 | 0.00 | 56 | 1012.6 |
| 20260905191726 | 95 | 158 | 1.0 | 2.0 | 0.00 | 0.00 | 0.00 | 58 | 1012.6 |
| 20260905191226 | 96 | 189 | 0.0 | 2.0 | 0.00 | 0.00 | 0.00 | 57 | 1012.6 |
| 20260905190726 | 96 | 163 | 2.0 | 2.0 | 0.00 | 0.00 | 0.00 | 56 | 1012.7 |
| 20260905190227 | 96 | 187 | 3.0 | 4.0 | 0.00 | 0.00 | 0.00 | 55 | 1012.8 |
| 20260905185726 | 96 | 161 | 1.0 | 2.0 | 0.00 | 0.00 | 0.00 | 55 | 1013.0 |
| 20260905185226 | 96 | 185 | 2.0 | 4.0 | 0.00 | 0.00 | 0.00 | 54 | 1013.2 |
| 20260905184726 | 96 | 228 | 1.0 | 2.0 | 0.00 | 0.00 | 0.00 | 57 | 1013.3 |
| 20260905184226 | 96 | 188 | 2.0 | 4.0 | 0.00 | 0.00 | 0.00 | 56 | 1013.4 |
| 20260905183726 | 95 | 183 | 1.0 | 2.0 | 0.00 | 0.00 | 0.00 | 58 | 1013.5 |
| 20260905183228 | 95 | 197 | 2.0 | 2.0 | 0.00 | 0.00 | 0.00 | 60 | 1013.5 |
| 20260905182726 | 96 | 166 | 2.0 | 4.0 | 0.00 | 0.00 | 0.00 | 57 | 1013.6 |
| 20260905182226 | 96 | 315 | 1.0 | 3.0 | 0.00 | 0.00 | 0.00 | 58 | 1013.7 |
| 20260905181726 | 95 | 133 | 1.0 | 2.0 | 0.00 | 0.00 | 0.00 | 57 | 1013.8 |
| 20260905181226 | 94 | 139 | 1.0 | 2.0 | 0.00 | 0.00 | 0.00 | 59 | 1013.9 |
| 20260905180726 | 94 | 205 | 1.0 | 2.0 | 0.00 | 0.00 | 0.00 | 60 | 1013.9 |
| 20260905180226 | 95 | 177 | 1.0 | 2.0 | 0.00 | 0.00 | 0.00 | 60 | 1013.9 |
| 20260905175726 | 95 | 180 | 1.0 | 2.0 | 0.00 | 0.00 | 0.00 | 59 | 1013.9 |
| 20260905175226 | 95 | 169 | 2.0 | 4.0 | 0.00 | 0.00 | 0.00 | 57 | 1014.0 |
| 20260905174726 | 94 | 159 | 2.0 | 4.0 | 0.00 | 0.00 | 0.00 | 59 | 1014.1 |
| 20260905174228 | 94 | 147 | 2.0 | 4.0 | 0.00 | 0.00 | 0.00 | 60 | 1014.2 |
| 20260905173726 | 95 | 189 | 2.0 | 3.0 | 0.00 | 0.00 | 0.00 | 60 | 1014.2 |
| 20260905173226 | 95 | 183 | 1.0 | 3.0 | 0.00 | 0.00 | 0.00 | 59 | 1014.4 |
| 20260905172727 | 95 | 185 | 1.0 | 2.0 | 0.00 | 0.00 | 0.00 | 59 | 1014.4 |
| 20260905172226 | 95 | 146 | 1.0 | 2.0 | 0.00 | 0.00 | 0.00 | 58 | 1014.4 |
| 20260905171726 | 95 | 141 | 1.0 | 1.0 | 0.00 | 0.00 | 0.00 | 57 | 1014.4 |
| 20260905171227 | 95 | 254 | 0.0 | 2.0 | 0.00 | 0.00 | 0.00 | 58 | 1014.4 |
| 20260905170726 | 94 | 164 | 1.0 | 3.0 | 0.00 | 0.00 | 0.00 | 59 | 1014.5 |
| 20260905170227 | 94 | 150 | 1.0 | 2.0 | 0.00 | 0.00 | 0.00 | 61 | 1014.6 |
| 20260905165726 | 94 | 123 | 1.0 | 2.0 | 0.00 | 0.00 | 0.00 | 59 | 1014.7 |
| 20260905165226 | 94 | 78 | 1.0 | 2.0 | 0.00 | 0.00 | 0.00 | 59 | 1014.7 |
| 20260905164726 | 94 | 162 | 2.0 | 4.0 | 0.00 | 0.00 | 0.00 | 59 | 1014.8 |
| 20260905164227 | 94 | 147 | 1.0 | 3.0 | 0.00 | 0.00 | 0.00 | 58 | 1014.8 |
| 20260905163726 | 93 | 149 | 1.0 | 3.0 | 0.00 | 0.00 | 0.00 | 60 | 1014.8 |
| 20260905163226 | 93 | 159 | 1.0 | 3.0 | 0.00 | 0.00 | 0.00 | 61 | 1014.9 |
| 20260905162726 | 93 | 109 | 1.0 | 3.0 | 0.00 | 0.00 | 0.00 | 59 | 1015.0 |
| 20260905162226 | 92 | 126 | 1.0 | 3.0 | 0.00 | 0.00 | 0.00 | 62 | 1015.0 |
| 20260905161726 | 92 | 148 | 2.0 | 4.0 | 0.00 | 0.00 | 0.00 | 63 | 1015.1 |
| 20260905161226 | 92 | 156 | 2.0 | 3.0 | 0.00 | 0.00 | 0.00 | 61 | 1015.2 |
| 20260905160726 | 92 | 141 | 2.0 | 3.0 | 0.00 | 0.00 | 0.00 | 63 | 1015.2 |
| 20260905160226 | 91 | 131 | 1.0 | 3.0 | 0.00 | 0.00 | 0.00 | 62 | 1015.1 |
| 20260905155726 | 91 | 151 | 2.0 | 3.0 | 0.00 | 0.00 | 0.00 | 61 | 1015.1 |
| 20260905155227 | 91 | 157 | 2.0 | 4.0 | 0.00 | 0.00 | 0.00 | 65 | 1015.2 |
| 20260905154728 | 91 | 141 | 2.0 | 4.0 | 0.00 | 0.00 | 0.00 | 63 | 1015.2 |
| 20260905154226 | 90 | 148 | 2.0 | 3.0 | 0.00 | 0.00 | 0.00 | 68 | 1015.2 |
| 20260905153726 | 90 | 137 | 1.0 | 3.0 | 0.00 | 0.00 | 0.00 | 67 | 1015.1 |
| 20260905153227 | 89 | 133 | 2.0 | 3.0 | 0.00 | 0.00 | 0.00 | 69 | 1015.1 |
| 20260905152726 | 89 | 129 | 2.0 | 4.0 | 0.00 | 0.00 | 0.00 | 67 | 1015.0 |
| 20260905152226 | 89 | 161 | 4.0 | 4.0 | 0.00 | 0.00 | 0.00 | 69 | 1014.9 |
| 20260905151726 | 88 | 134 | 2.0 | 4.0 | 0.00 | 0.00 | 0.00 | 71 | 1015.0 |
| 20260905151226 | 88 | 137 | 2.0 | 3.0 | 0.00 | 0.00 | 0.00 | 70 | 1014.9 |
| 20260905150726 | 88 | 136 | 2.0 | 3.0 | 0.00 | 0.00 | 0.00 | 71 | 1015.0 |
| 20260905150226 | 88 | 135 | 2.0 | 5.0 | 0.00 | 0.00 | 0.00 | 72 | 1014.9 |
| 20260905145726 | 87 | 146 | 3.0 | 3.0 | 0.00 | 0.00 | 0.00 | 76 | 1014.9 |
| 20260905145226 | 86 | 153 | 2.0 | 4.0 | 0.00 | 0.00 | 0.00 | 78 | 1014.9 |
| 20260905144726 | 85 | 132 | 2.0 | 3.0 | 0.00 | 0.00 | 0.00 | 80 | 1014.9 |
| 20260905144227 | 85 | 144 | 3.0 | 4.0 | 0.00 | 0.00 | 0.00 | 82 | 1014.9 |
| 20260905143731 | 84 | 154 | 3.0 | 4.0 | 0.00 | 0.00 | 0.00 | 82 | 1014.9 |
| 20260905143226 | 84 | 139 | 3.0 | 4.0 | 0.00 | 0.00 | 0.00 | 83 | 1015.0 |
| 20260905142726 | 83 | 135 | 3.0 | 4.0 | 0.00 | 0.00 | 0.00 | 84 | 1015.0 |
| 20260905142226 | 83 | 136 | 3.0 | 4.0 | 0.00 | 0.00 | 0.00 | 84 | 1014.9 |
| 20260905141726 | 84 | 140 | 3.0 | 4.0 | 0.00 | 0.00 | 0.00 | 83 | 1014.9 |
| 20260905141226 | 84 | 148 | 3.0 | 4.0 | 0.00 | 0.00 | 0.00 | 83 | 1014.9 |
| 20260905140728 | 84 | 134 | 3.0 | 4.0 | 0.00 | 0.00 | 0.00 | 82 | 1014.9 |
| 20260905140226 | 84 | 139 | 3.0 | 4.0 | 0.00 | 0.00 | 0.00 | 83 | 1014.8 |
| 20260905135727 | 83 | 138 | 4.0 | 5.0 | 0.00 | 0.00 | 0.00 | 85 | 1014.8 |
| 20260905135227 | 82 | 128 | 3.0 | 4.0 | 0.00 | 0.00 | 0.00 | 85 | 1014.9 |
| 20260905134726 | 81 | 126 | 2.0 | 3.0 | 0.00 | 0.00 | 0.00 | 90 | 1014.9 |
| 20260905134226 | 80 | 131 | 3.0 | 4.0 | 0.00 | 0.00 | 0.00 | 91 | 1014.8 |
| 20260905133727 | 80 | 128 | 2.0 | 4.0 | 0.00 | 0.00 | 0.00 | 92 | 1014.8 |
| 20260905133226 | 79 | 138 | 4.0 | 5.0 | 0.00 | 0.00 | 0.00 | 93 | 1014.9 |
| 20260905132726 | 79 | 143 | 5.0 | 6.0 | 0.00 | 0.00 | 0.00 | 95 | 1014.9 |
| 20260905132226 | 79 | 136 | 5.0 | 6.0 | 0.00 | 0.00 | 0.00 | 96 | 1014.8 |
| 20260905131726 | 78 | 139 | 6.0 | 6.0 | 0.00 | 0.00 | 0.00 | 97 | 1014.7 |
| 20260905131226 | 78 | 139 | 5.0 | 7.0 | 0.00 | 0.00 | 0.00 | 97 | 1014.7 |
| 20260905130726 | 77 | 138 | 6.0 | 7.0 | 0.00 | 0.00 | 0.00 | 97 | 1014.9 |
| 20260905130226 | 77 | 137 | 4.0 | 7.0 | 0.00 | 0.00 | 0.00 | 97 | 1014.9 |
| 20260905125726 | 76 | 138 | 6.0 | 7.0 | 0.00 | 0.00 | 0.00 | 97 | 1014.9 |
| 20260905125226 | 76 | 137 | 5.0 | 7.0 | 0.00 | 0.00 | 0.00 | 97 | 1015.0 |
| 20260905124726 | 76 | 136 | 4.0 | 7.0 | 0.00 | 0.00 | 0.00 | 97 | 1015.0 |
| 20260905124226 | 76 | 139 | 6.0 | 7.0 | 0.00 | 0.00 | 0.00 | 97 | 1014.9 |
| 20260905123726 | 75 | 136 | 4.0 | 6.0 | 0.00 | 0.00 | 0.00 | 97 | 1014.8 |
| 20260905123226 | 75 | 136 | 5.0 | 5.0 | 0.00 | 0.00 | 0.00 | 97 | 1014.8 |
| 20260905122726 | 75 | 136 | 5.0 | 6.0 | 0.00 | 0.00 | 0.00 | 97 | 1014.9 |
| 20260905122226 | 74 | 143 | 5.0 | 6.0 | 0.00 | 0.00 | 0.00 | 97 | 1014.8 |
| 20260905121727 | 74 | 130 | 4.0 | 6.0 | 0.00 | 0.00 | 0.00 | 97 | 1014.8 |
| 20260905121230 | 74 | 133 | 4.0 | 6.0 | 0.00 | 0.00 | 0.00 | 97 | 1014.7 |
| 20260905120726 | 74 | 133 | 4.0 | 6.0 | 0.00 | 0.00 | 0.00 | 97 | 1014.6 |
| 20260905120226 | 74 | 141 | 6.0 | 6.0 | 0.00 | 0.00 | 0.00 | 97 | 1014.6 |
| 20260905115727 | 74 | 137 | 5.0 | 6.0 | 0.00 | 0.00 | 0.00 | 97 | 1014.6 |
| 20260905115227 | 74 | 144 | 4.0 | 6.0 | 0.00 | 0.00 | 0.00 | 97 | 1014.6 |
| 20260905114726 | 74 | 138 | 5.0 | 6.0 | 0.00 | 0.00 | 0.00 | 97 | 1014.5 |
| 20260905114226 | 74 | 142 | 6.0 | 7.0 | 0.00 | 0.00 | 0.00 | 97 | 1014.5 |
| 20260905113726 | 74 | 134 | 6.0 | 7.0 | 0.00 | 0.00 | 0.00 | 97 | 1014.4 |
| 20260905113226 | 74 | 134 | 6.0 | 7.0 | 0.00 | 0.00 | 0.00 | 97 | 1014.4 |
| 20260905112726 | 74 | 137 | 6.0 | 8.0 | 0.00 | 0.00 | 0.00 | 97 | 1014.4 |
| 20260905112227 | 74 | 141 | 5.0 | 7.0 | 0.00 | 0.00 | 0.00 | 97 | 1014.4 |
| 20260905111726 | 74 | 137 | 5.0 | 7.0 | 0.00 | 0.00 | 0.00 | 97 | 1014.4 |
| 20260905111226 | 74 | 138 | 5.0 | 7.0 | 0.00 | 0.00 | 0.00 | 97 | 1014.4 |
| 20260905110241 | 74 | 137 | 5.0 | 7.0 | 0.00 | 0.00 | 0.00 | 97 | 1014.4 |
| 20260905105726 | 74 | 137 | 5.0 | 7.0 | 0.00 | 0.00 | 0.00 | 97 | 1014.4 |
| 20260905105227 | 74 | 132 | 4.0 | 7.0 | 0.00 | 0.00 | 0.00 | 97 | 1014.3 |
| 20260905104726 | 74 | 137 | 5.0 | 7.0 | 0.00 | 0.00 | 0.00 | 97 | 1014.3 |
| 20260905104226 | 74 | 138 | 6.0 | 7.0 | 0.00 | 0.00 | 0.00 | 97 | 1014.3 |
| 20260905103726 | 74 | 140 | 4.0 | 6.0 | 0.00 | 0.00 | 0.00 | 97 | 1014.3 |